• MPC Preparation (Info)

  • MPEC 2020-K88 : 2020 KS1

    The following Minor Planet Electronic Circular may be linked-to from your own Web pages, but must not otherwise be redistributed electronically.

    A form allowing access to any MPEC is at the bottom of this page.


    Read MPEC 2020-K87 Read MPEC 2020-K89


    M.P.E.C. 2020-K88                                  Issued 2020 May 20, 16:13 UT
    
         The Minor Planet Electronic Circulars contain information on unusual
             minor planets and routine data on comets.  They are published
        on behalf of Division F of the International Astronomical Union by the
              Minor Planet Center, Smithsonian Astrophysical Observatory,
                              Cambridge, MA 02138, U.S.A.
    
                 Prepared using the Tamkin Foundation Computer Network
    
                                  MPC@CFA.HARVARD.EDU
                URL https://www.minorplanetcenter.net/    ISSN 1523-6714
    
                                    2020 KS1                                 
    
    
    Observations:
         K20K01S* C2020 05 17.58902220 35 03.092-21 24 50.97         21.08wUEK088F51
         K20K01S  C2020 05 17.59043620 35 03.479-21 24 51.11         21.42wUEK088F51
         K20K01S  C2020 05 17.59647620 35 05.111-21 24 51.73         21.41wUEK088F51
         K20K01S  C2020 05 17.60122220 35 06.398-21 24 52.17         21.17wUEK088F51
         K20K01S  C2020 05 17.60250720 35 06.740-21 24 52.33         21.35wUEK088F51
         K20K01S  C2020 05 17.60700020 35 07.970-21 24 52.95         21.39wUEK088F51
         K20K01S  C2020 05 18.39209 20 38 47.68 -21 25 59.2          21.3 GVEK088I52
         K20K01S  C2020 05 18.39591 20 38 48.67 -21 26 00.2          22.3 GVEK088I52
         K20K01S  C2020 05 18.39973 20 38 49.62 -21 26 00.2          20.9 GVEK088I52
         K20K01S  C2020 05 18.40355 20 38 50.72 -21 26 01.1          21.4 GVEK088I52
         K20K01S ^C2020 05 19.58609120 44 18.220-21 27 20.28         21.41GVEK088568
         K20K01S ^C2020 05 19.58703520 44 18.470-21 27 20.36         21.43GVEK088568
         K20K01S ^C2020 05 19.58800920 44 18.731-21 27 20.43         21.51GVEK088568
         K20K01S KC2020 05 19.65281120 44 36.72 -21 26 59.8          21.2 GVEK088474
         K20K01S KC2020 05 19.66103420 44 38.96 -21 27 00.3          21.5 GVEK088474
         K20K01S KC2020 05 19.66455920 44 39.87 -21 27 01.4          22.5 GVEK088474
    
    Observer details:
    474 Mount John Observatory, Lake Tekapo.  Observers A. C. Gilmore, P. M.
        Kilmartin.  Measurer P. M. Kilmartin.  1.0-m f/7.7 reflector + CCD.
    568 Mauna Kea.  Observers R. Wainscoat, C. Crowder, T. Burdullis.  Measurers
        R. Weryk, R. Wainscoat.  3.6-m Canada-France-Hawaii Telescope + CCD.
    F51 Pan-STARRS 1, Haleakala.  Observers J. Bulger, T. Lowe, A. Schultz, M.
        Willman.  Measurers K. Chambers, S. Chastel, T. de Boer, L. Denneau, J.
        Fairlamb, H. Flewelling, M. Huber, C.-C. Lin, E. Magnier, Y. Ramanjooloo,
        R. Wainscoat, R. Weryk.  1.8-m Ritchey-Chretien + CCD.
    I52 Steward Observatory, Mt. Lemmon Station.  Observer D. C. Fuls.  Measurers
        E. J. Christensen, G. A. Farneth, D. C. Fuls, A. R. Gibbs, A. D. Grauer,
        H. Groeller, R. A. Kowalski, S. M. Larson, G. J. Leonard, T. A. Pruyne, D.
        Rankin, R. L. Seaman, F. C. Shelly, K. W. Wierzchos.  1.0-m reflector +
        CCD.
    
    Orbital elements:
    2020 KS1                                                 Earth MOID = 0.1829 AU
    Epoch 2020 May 31.0 TT = JDT 2459000.5                  Pan
    M   0.13827              (2000.0)            P               Q
    n   0.26176048     Peri.  200.26379     -0.07127827     +0.99325233
    a   2.4202859      Node    65.74034     -0.90076857     -0.02470507
    e   0.5062370      Incl.    5.75901     -0.42841031     -0.11331135
    P   3.77           H   21.2           G   0.15           U   8
    Residuals in seconds of arc
    200517 F51  0.1-  0.0     200518 I52  0.9+  0.3+    200519 568  0.0   0.0
    200517 F51  0.0   0.0     200518 I52  0.2+  0.3-    200519 474  0.1-  0.2+
    200517 F51  0.0   0.0     200518 I52  1.0-  0.1+    200519 474  0.3+  0.3+
    200517 F51  0.0   0.1+    200518 I52  0.1-  0.4-    200519 474  0.2-  0.5-
    200517 F51  0.0   0.0     200519 568  0.0   0.0
    200517 F51  0.2+  0.1-    200519 568  0.0   0.0
    
    Ephemeris:
    2020 KS1                 a,e,i = 2.42, 0.51, 6                   q = 1.1950
    Date    TT    R. A. (2000) Decl.     Delta      r    Elong.  Phase     V
    2020 04 20    18 26 53.9 -19 11 39   0.4810  1.2763   113.7    46.1    21.9
    ...
    2020 05 05    19 35 23.9 -20 45 48   0.4146  1.2283   112.5    49.4    21.6
    ...
    2020 05 13    20 13 26.3 -21 15 12   0.3921  1.2109   111.6    50.9    21.5
    ...
    2020 05 19    20 41 35.3 -21 26 27   0.3805  1.2019   111.0    51.8    21.4
    2020 05 20    20 46 11.7 -21 27 30   0.3790  1.2008   110.9    51.9    21.4
    2020 05 21    20 50 46.1 -21 28 19   0.3776  1.1997   110.9    52.0    21.4
    ...
    2020 05 27    21 17 22.4 -21 29 05   0.3712  1.1957   110.6    52.5    21.4
    ...
    2020 06 04    21 49 59.4 -21 22 13   0.3676  1.1961   110.9    52.4    21.3
    ...
    2020 06 19    22 39 41.6 -21 06 17   0.3712  1.2148   113.9    49.9    21.3
    
    M. P. C. Staff               (C) Copyright 2020 MPC           M.P.E.C. 2020-K88
    


    Read MPEC 2020-K87 Read MPEC 2020-K89


    MPEC number:

    Enter an MPEC number in one of the following forms:

    • 1997-B01 (the full form)
    • J97B01 (the packed version of the full form)
    • B01 (the abbreviated form)